Zurück zum Katalog

OPTUS A2 R/B

PAM-D

AktivGTO
NORAD 16294·ROCKET BODY·🇺🇸 United States

Gestartet Nov 27, 1985 von Cape Canaveral Space Force Station

Loading…

TLE

VeraltetSource: Space-Track

Epoche: Sep 14, 2026, 02:03 UTC

1 16294U 85109G   26257.08552308  .00000465  00000-0  47173-3 0  9998
2 16294  25.8103 122.7042 7159222 288.6485  10.4564  2.39177992304398

Verfolge OPTUS A2 R/B in Echtzeit mit AllMySat

Download on the App Store